Weather observations for the past three days for
Caro, Tuscola Area Airport
Imperial (Metric)
Date Time (edt) Wind (mph) Vis. (mi.) Weather Sky Cond. Temperature (ºF) Relative Humidity Wind Chill (°F) Heat Index (°F) Pressure Precipitation (in)
Air Dwpt 6 hour altimeter (in) sea level (mb) 1 hr 3 hr 6 hr
Max. Min.
19 13:55 W 8 10.00 Partly Cloudy SCT048 75.2 52.5 75.6 57.2 45% 78 30.18 0.0
19 13:35 W 8 10.00 Partly Cloudy SCT047 74.7 54 49% 30.19 0.0
19 13:15 W 8 10.00 Fair CLR 74.7 54.5 50% 30.19 0.0
19 12:55 W 7 10.00 Fair CLR 74.5 55.8 52% 30.19 0.0
19 12:35 W 12 10.00 Fair CLR 73.8 55.2 52% 30.19 0.0
19 12:15 W 9 10.00 Fair CLR 73.6 55.9 54% 30.19 0.0
19 11:55 W 7 10.00 Fair CLR 73.4 55.6 54% 30.19 0.0
19 11:35 W 7 10.00 Fair CLR 71.8 55.4 56% 30.19 0.0
19 11:15 W 6 10.00 Fair CLR 72.3 56.1 57% 30.2 0.0
19 10:55 W 5 10.00 Fair CLR 71.8 56.1 58% 30.2 0.0
19 10:35 W 3 10.00 Fair CLR 70.7 57.9 64% 30.2 0.0
19 10:15 W 3 10.00 Fair CLR 69.1 59.5 72% 30.2 0.0
19 09:55 SW 6 10.00 Fair CLR 66.9 58.8 75% 30.2 0.0
19 09:35 W 5 10.00 Fair CLR 65.1 60.3 84% 30.2 0.0
19 09:15 Calm 10.00 Fair CLR 63.3 60.3 90% 30.2 0.0
19 08:55 Calm 10.00 Fair CLR 61.9 59.9 93% 30.2 0.0
19 08:35 Calm 10.00 Fair CLR 60.1 59.2 97% 30.2 0.0
19 08:15 SW 6 10.00 Fair CLR 58.5 58.1 99% 30.2 0.0
19 07:55 SW 5 10.00 Fair CLR 57.2 56.5 57.2 50 97% 30.2 0.0
19 07:35 Calm 10.00 Fair CLR 55.2 54.9 99% 30.19 0.0
19 07:15 Calm 10.00 Fair CLR 53.1 52.7 99% 30.18 0.0
19 06:55 Calm 10.00 Fair CLR 50.9 50.5 99% 30.18 0.0
19 06:35 Calm 1.25 Fog/Mist VV007 50.4 50 99% 30.17 0.0
19 06:15 Calm 2.50 Fog/Mist CLR 50.7 50.4 99% 30.17 0.0
19 05:55 Calm 10.00 Fair CLR 50.9 50.4 98% 30.17 0.0
19 05:35 Calm 10.00 Fair CLR 51.3 50.9 99% 30.16 0.0
19 05:15 Calm 10.00 Fair CLR 51.3 50.9 99% 30.16 0.0
19 04:55 Calm 10.00 Fair CLR 51.3 50.9 99% 30.16 0.0
19 04:35 Calm 10.00 Fair CLR 51.8 51.4 99% 30.16 0.0
19 04:15 Calm 10.00 Fair CLR 52.3 52 99% 30.17 0.0
19 03:55 Calm 10.00 Fair CLR 52.7 52.3 99% 30.17 0.0
19 03:35 Calm 5.00 Fog/Mist CLR 51.8 51.4 99% 30.17 0.0
19 03:15 Calm 10.00 Fair CLR 52.7 52.3 99% 30.17 0.0
19 02:55 Calm 10.00 Fair CLR 53.1 52.7 99% 30.17 0.0
19 02:35 Calm 10.00 Fair CLR 52.3 52 99% 30.17 0.0
19 02:15 Calm 10.00 Fair CLR 53.6 53.2 99% 30.17 0.0
19 01:55 Calm 10.00 Fair CLR 54 53.6 70.5 54 99% 30.17 0.0
19 01:35 Calm 10.00 Fair CLR 54.7 54.3 99% 30.17 0.0
19 01:15 Calm 10.00 Fair CLR 55.4 54.9 98% 30.16 0.0
19 00:55 Calm 10.00 Fair CLR 54.9 54.5 99% 30.16 0.0
19 00:35 Calm 10.00 Fair CLR 55.6 55.4 99% 30.16 0.0
19 00:15 Calm 10.00 Fair CLR 55.9 55.6 99% 30.15 0.0
18 23:55 Calm 10.00 Fair CLR 56.3 55.8 98% 30.15 0.0
18 23:35 Calm 10.00 Fair CLR 55.6 55.4 99% 30.15 0.0
18 23:15 Calm 10.00 Fair CLR 56.3 55.8 98% 30.15 0.0
18 22:55 Calm 10.00 Fair CLR 56.3 55.8 98% 30.15 0.0
18 22:35 Calm 10.00 Fair CLR 57.2 56.8 99% 30.15 0.0
18 22:15 Calm 10.00 Fair CLR 57.6 57.2 99% 30.15 0.0
18 21:55 Calm 2.50 Fog/Mist CLR 58.3 58.1 99% 30.14 0.0
18 21:35 Calm 5.00 Fog/Mist CLR 59.7 59.2 98% 30.14 0.0
18 21:15 Calm 10.00 Fair CLR 60.4 59.7 97% 30.14 0.0
18 20:55 Calm 10.00 Fair CLR 63.5 63 98% 30.14 0.0
18 20:35 Calm 10.00 Fair CLR 65.7 64.4 96% 30.14 0.0
18 20:15 Calm 10.00 Fair CLR 69.1 60.4 74% 30.15 0.0
18 19:55 Calm 10.00 Fair CLR 70.7 54 72.7 66.7 56% 30.15 0.0
18 19:35 Calm 10.00 Fair CLR 70.3 50.2 49% 30.15 0.0
18 19:15 NW 3 10.00 Fair CLR 70.7 51.3 50% 30.14 0.0
18 18:55 NW 5 10.00 Fair CLR 70.7 51.1 50% 30.14 0.0
18 18:35 NW 6 10.00 Fair CLR 70.3 49.5 48% 30.14 0.0
18 18:15 NW 7 10.00 Fair CLR 70.7 49.1 46% 30.14 0.0
18 17:55 N 5 10.00 Fair CLR 70.9 50.4 48% 30.14 0.0
18 17:35 W 6 10.00 Partly Cloudy SCT050 72.5 49.8 45% 30.15 0.0
18 17:15 Calm 10.00 Partly Cloudy SCT050 71.1 50.7 49% 30.15 0.0
18 16:55 N 5 10.00 Partly Cloudy SCT049 SCT060 70.9 51.6 51% 30.15 0.0
18 16:35 N 6 10.00 Partly Cloudy SCT060 71.6 51.8 50% 30.15 0.0
18 16:15 NW 5 10.00 Partly Cloudy SCT050 70.7 49.1 46% 30.15 0.0
18 15:55 NW 6 10.00 Partly Cloudy SCT048 SCT055 72 51.6 49% 30.15 0.0
18 15:35 Calm 10.00 Partly Cloudy SCT050 SCT065 68.2 49.6 52% 30.15 0.0
18 15:15 N 5 10.00 Partly Cloudy SCT050 70.5 49.8 48% 30.16 0.0
18 14:55 Calm 10.00 Partly Cloudy SCT050 SCT055 69.4 50.2 51% 30.16 0.0
18 14:35 N 8 10.00 Mostly Cloudy SCT042 SCT049 BKN055 69.1 53.1 57% 30.16 0.0
18 14:15 N 7 10.00 Mostly Cloudy SCT042 BKN055 69.1 53.4 58% 30.16 0.0
18 13:55 N 8 10.00 Mostly Cloudy SCT039 BKN045 BKN055 67.5 53.1 69.1 60.1 60% 30.16 0.0
18 13:35 N 5 10.00 Partly Cloudy SCT039 SCT047 SCT055 68.9 52.3 56% 30.15 0.0
18 13:15 N 7 10.00 Partly Cloudy SCT039 SCT049 SCT055 67.8 53.2 60% 30.16 0.0
18 12:55 N 8 10.00 Mostly Cloudy SCT038 BKN049 67.5 54 62% 30.15 0.0
18 12:35 N 7 10.00 Partly Cloudy SCT036 SCT046 67.8 54.1 62% 30.15 0.0
18 12:15 N 7 10.00 Partly Cloudy SCT036 66.6 52.7 61% 30.16 0.0
18 11:55 N 8 10.00 Partly Cloudy SCT034 67.3 53.1 60% 30.15 0.0
18 11:35 N 9 G 16 10.00 Partly Cloudy SCT034 66.2 52 60% 30.15 0.0
18 11:15 N 9 10.00 Partly Cloudy SCT032 66 51.8 60% 30.15 0.0
18 10:55 N 10 G 16 10.00 Partly Cloudy SCT028 SCT032 66.4 52.7 62% 30.15 0.0
18 10:35 N 10 G 17 10.00 Mostly Cloudy BKN028 BKN033 66.7 55.2 67% 30.14 0.0
18 10:15 N 10 G 16 10.00 Partly Cloudy SCT024 63.7 54.5 72% 30.14 0.0
18 09:55 NW 9 10.00 Mostly Cloudy BKN024 63.1 55.4 76% 30.13 0.0
18 09:35 N 8 10.00 Partly Cloudy SCT024 SCT030 62.1 54.7 77% 30.13 0.0
18 09:15 N 9 10.00 Partly Cloudy SCT026 61 55.2 81% 30.12 0.0
18 08:55 NW 7 10.00 Mostly Cloudy SCT022 BKN027 BKN034 61.2 56.8 86% 30.12 0.0
18 08:35 NW 6 10.00 Mostly Cloudy SCT017 BKN024 BKN029 62.4 59 89% 30.12 0.0
18 08:15 NW 6 10.00 Partly Cloudy SCT017 SCT023 60.1 58.6 95% 30.11 0.0
18 07:55 N 5 10.00 Partly Cloudy SCT017 SCT025 61.2 59.4 61.2 56.7 94% 30.11 0.0
18 07:35 NW 3 10.00 Fair CLR 60.6 59.7 97% 30.1 0.0
18 07:15 Calm 10.00 Fair CLR 59.7 59.4 99% 30.1 0.0
18 06:55 Calm 10.00 Fair CLR 58.3 57.9 99% 30.09 0.0
18 06:35 Calm 10.00 Fair CLR 57 56.5 98% 30.08 0.0
18 06:15 N 5 10.00 Partly Cloudy SCT017 57.4 56.8 98% 30.08 0.0
18 05:55 Calm 10.00 Partly Cloudy SCT015 SCT020 57.9 57.6 99% 30.08 0.0
18 05:35 NW 3 10.00 Partly Cloudy SCT020 SCT027 58.5 58.1 99% 30.07 0.0
18 04:47 NW 6 10.00 Fair CLR 58.6 58.3 99% 30.05 0.0
17 23:15 N 3 10.00 Mostly Cloudy SCT042 BKN048 63.7 57 79% 30.01 0.0
17 22:55 NW 5 10.00 Fair CLR 62.6 56.3 80% 30 0.0
17 22:35 NW 5 10.00 Fair CLR 63.7 55.4 75% 30 0.0
17 22:15 NW 5 10.00 Fair CLR 64.8 54.7 70% 29.99 0.0
17 21:55 NW 6 10.00 Fair CLR 66.2 53.6 64% 29.98 0.0
17 21:35 NW 6 10.00 Partly Cloudy SCT070 66.9 55 66% 29.97 0.0
17 21:15 NW 5 10.00 Mostly Cloudy SCT060 BKN070 BKN080 67.8 58.1 71% 29.97 0.0
17 20:55 NW 3 10.00 Mostly Cloudy SCT060 BKN075 BKN085 69.3 58.3 68% 29.96 0.0
17 20:35 N 3 10.00 Mostly Cloudy SCT060 BKN080 BKN085 69.1 57.6 67% 29.95 0.0
17 20:15 N 5 10.00 Partly Cloudy SCT080 70.3 56.8 62% 29.95 0.0
17 19:55 N 5 10.00 Partly Cloudy SCT060 70.9 56.5 79.9 70.2 61% 29.94 0.0
17 19:35 N 8 10.00 Partly Cloudy SCT060 SCT075 72.5 56.7 58% 29.93 0.0
17 19:15 N 7 10.00 Partly Cloudy SCT060 SCT070 71.4 57.7 62% 29.93 0.0
17 18:55 N 7 10.00 Partly Cloudy SCT050 SCT060 SCT085 72 58.5 63% 29.92 0.0
17 18:35 N 5 10.00 Mostly Cloudy SCT050 SCT060 BKN070 72.9 59 62% 29.92 0.0
17 18:15 N 5 10.00 Mostly Cloudy SCT055 SCT065 BKN095 72.5 58.8 62% 29.91 0.0
17 17:55 N 8 10.00 Partly Cloudy SCT055 73.2 58.1 59% 29.91 0.0
17 17:35 N 9 10.00 Partly Cloudy SCT050 SCT075 74.7 57.9 56% 29.91 0.0
17 17:15 N 10 10.00 Partly Cloudy SCT050 SCT070 SCT075 74.5 57.6 56% 29.91 0.0
17 16:55 NW 9 10.00 Partly Cloudy SCT055 SCT070 SCT090 73.9 58.8 59% 29.91 0.0
17 16:35 N 13 G 17 10.00 Partly Cloudy SCT055 74.7 61 63% 29.91 0.0
17 16:15 N 12 G 16 10.00 Fair CLR 76.1 59.4 56% 78 29.9 0.0
17 15:55 N 12 10.00 Fair CLR 75.9 58.1 54% 78 29.9 0.0
17 15:35 NW 7 G 16 10.00 Fair CLR 75.4 58.1 55% 78 29.9 0.0
17 15:15 NW 6 10.00 Fair CLR 73.2 62.6 69% 29.9 0.0
17 14:55 N 8 G 18 10.00 Partly Cloudy SCT042 SCT047 SCT055 70.3 59.4 68% 29.89 0.0
17 14:35 NW 16 G 25 10.00 Partly Cloudy SCT048 SCT065 79.2 61.5 55% 80 29.89 0.0
17 14:15 W 8 10.00 Partly Cloudy SCT050 SCT055 79.5 62.1 55% 81 29.88 0.0
17 13:55 W 7 10.00 Partly Cloudy SCT043 SCT060 79 62.1 79.2 65.3 56% 80 29.88 0.0
17 13:35 W 8 10.00 Partly Cloudy SCT036 79 62.6 57% 80 29.88 0.0
17 13:15 W 6 10.00 Partly Cloudy SCT035 SCT043 SCT048 77.2 64 64% 79 29.88 0.0
17 12:55 W 6 10.00 Partly Cloudy SCT035 SCT055 78.1 64.6 63% 80 29.89 0.0
17 12:35 SW 6 10.00 Mostly Cloudy SCT037 BKN044 77 63.3 63% 79 29.89 0.0
17 12:15 NW 7 10.00 Mostly Cloudy SCT030 BKN043 BKN049 77.4 62.4 60% 79 29.89 0.0
17 11:55 W 3 10.00 Mostly Cloudy SCT030 SCT034 BKN044 76.6 62.6 62% 78 29.89 0.0
17 11:35 W 7 10.00 Partly Cloudy SCT029 SCT033 76.8 63.5 64% 79 29.89 0.0
17 11:15 W 5 10.00 Partly Cloudy SCT029 SCT037 75.9 61.9 62% 78 29.89 0.0
17 10:55 W 3 10.00 Fair CLR 75 62.4 65% 77 29.89 0.0
17 10:35 Calm 10.00 Fair CLR 74.8 63.9 69% 29.89 0.0
17 10:15 Calm 10.00 Fair CLR 74.1 64.4 72% 29.89 0.0
17 09:55 Calm 10.00 Fair CLR 73.2 65.5 77% 29.9 0.0
17 09:35 W 3 10.00 Partly Cloudy SCT100 71.8 66.4 83% 29.9 0.0
17 09:15 W 3 10.00 Fair CLR 71.4 66.4 84% 29.9 0.0
17 08:35 Calm 10.00 Fair CLR 69.1 66.4 91% 29.9 0.0
17 08:15 Calm 10.00 Fair CLR 66.2 65.7 98% 29.9 0.0
17 07:55 Calm 10.00 Fair CLR 64.9 64.6 64.9 59.7 99% 29.89 0.0
17 07:35 Calm 10.00 Fair CLR 63.5 63.1 99% 29.89 0.0
17 07:15 Calm 7.00 Fair CLR 61.7 61.3 99% 29.89 0.0
17 06:55 Calm 5.00 Fog/Mist CLR 60.1 59.9 99% 29.88 0.0
17 06:35 Calm 3.00 Fog/Mist CLR 59.9 59.5 99% 29.87 0.0
17 06:15 Calm 1.25 Fog/Mist VV007 60.3 59.7 98% 29.87 0.0
17 05:55 Calm 5.00 Fog/Mist CLR 61.3 61 99% 29.86 0.0
17 05:35 Calm 7.00 Fair CLR 61.3 61 99% 29.86 0.0
17 05:15 Calm 10.00 Fair CLR 61.9 61.5 99% 29.85 0.0
17 04:55 Calm 7.00 Partly Cloudy SCT120 61.5 61.2 99% 29.85 0.0
17 04:35 Calm 7.00 Partly Cloudy SCT120 61.9 61.5 99% 29.84 0.0
17 04:15 Calm 10.00 Fair CLR 61.5 61 98% 29.84 0.0
17 03:55 Calm 7.00 Fair CLR 61.9 61.5 99% 29.84 0.0
17 03:35 Calm 10.00 Fair CLR 62.4 61.9 98% 29.83 0.0
17 03:15 Calm 10.00 Fair CLR 63.1 62.8 99% 29.84 0.0
17 02:55 Calm 7.00 Fair CLR 61.7 61.2 98% 29.84 0.0
17 02:35 Calm 10.00 Fair CLR 63.1 62.6 98% 29.85 0.0
17 02:15 Calm 10.00 Fair CLR 63.1 62.8 99% 29.84 0.0
17 01:55 Calm 7.00 Fair CLR 62.6 62.2 75.7 62.6 99% 29.84 0.0
17 01:35 Calm 10.00 Fair CLR 63.5 63 98% 29.84 0.0
17 01:15 Calm 10.00 Fair CLR 64.4 63.9 98% 29.84 0.0
17 00:55 NW 3 10.00 Fair CLR 66.2 65.5 98% 29.84 0.0
17 00:35 Calm 10.00 Fair CLR 67.3 66.2 96% 29.84 0.0
17 00:15 NW 5 10.00 Fair CLR 67.5 66.4 96% 29.82 0.0
16 23:55 NW 3 10.00 Partly Cloudy SCT044 67.5 66.6 97% 29.82 0.0
16 23:35 Calm 10.00 Partly Cloudy SCT048 67.5 66.6 97% 29.82 0.0
16 23:15 W 5 10.00 Partly Cloudy SCT046 68.2 66 93% 29.82 0.0
16 22:55 NW 5 10.00 Partly Cloudy SCT045 68.2 65.5 91% 29.81 0.0
16 22:35 W 5 10.00 Fair CLR 69.8 66.2 88% 29.82 0.0
16 22:15 W 3 10.00 Fair CLR 70.7 69.1 95% 29.8 0.0
16 21:55 Calm 5.00 Fog/Mist CLR 70 69.4 98% 29.8 0.0
16 21:35 Calm 10.00 Partly Cloudy SCT070 72.1 71.1 96% 29.8 0.0
16 21:15 Calm 10.00 Mostly Cloudy BKN070 72.9 72 97% 29.8 0.0
16 20:55 SW 3 10.00 Mostly Cloudy BKN070 73.2 71.6 95% 29.78 0.0
16 20:35 SW 5 10.00 Mostly Cloudy SCT033 SCT042 BKN070 74.5 71.1 89% 29.78 0.0
16 20:15 SW 7 10.00 Mostly Cloudy SCT037 SCT043 BKN075 74.8 71.2 89% 29.77 0.0
16 19:55 SW 8 10.00 Partly Cloudy SCT036 76.5 71.4 81.5 72.9 84% 77 29.77 0.0
16 19:35 W 7 10.00 Partly Cloudy SCT034 SCT050 78.6 73 83% 82 29.75 0.0
16 19:15 SW 6 10.00 Mostly Cloudy SCT036 BKN050 BKN095 79.9 72.1 77% 84 29.76 0.0
16 18:55 W 9 10.00 Mostly Cloudy SCT026 SCT050 BKN085 81 71.4 73% 85 29.77 0.0
16 18:35 W 6 10.00 Partly Cloudy SCT025 SCT075 80.6 73 78% 85 29.76 0.0
16 18:15 W 8 10.00 Partly Cloudy SCT027 SCT033 SCT060 80.8 72.9 77% 85 29.76 0.0
16 17:55 W 10 10.00 Mostly Cloudy SCT027 SCT035 BKN044 80.6 73 78% 85 29.76 0.0
16 17:35 SW 12 G 16 10.00 Mostly Cloudy SCT025 SCT038 BKN070 79.7 73 80% 84 29.77 0.0
16 17:15 SW 10 10.00 Partly Cloudy SCT029 SCT036 80.8 73.2 78% 86 29.77 0.0
16 16:55 SW 9 10.00 Partly Cloudy SCT019 SCT026 80.1 73.4 80% 84 29.76 0.0
16 16:35 SW 9 10.00 Partly Cloudy SCT019 SCT028 79.3 73.2 82% 83 29.76 0.0
16 16:15 W 9 10.00 Partly Cloudy SCT019 80.6 73.6 79% 85 29.75 0.0
16 15:55 W 7 10.00 Partly Cloudy SCT095 79 74.7 87% 83 29.76 0.0
16 15:35 SW 7 10.00 Mostly Cloudy SCT029 SCT040 BKN095 75.7 74.7 96% 75 29.76 0.0
16 15:15 SW 9 4.00 Fog/Mist SCT007 BKN027 OVC042 73.8 73.4 99% 29.77 0.0
16 14:55 SW 7 2.50 Fog/Mist SCT007 OVC015 73.2 72.7 98% 29.77 0.0
16 14:35 W 7 3.00 Fog/Mist OVC015 73 72.5 98% 29.78 0.0
Date Time (edt) Wind (mph) Vis. (mi.) Weather Sky Cond. Air Dwpt Max. Min. Relative Humidity Wind Chill (°F) Heat Index (°F) altimeter (in) sea level (mb) 1 hr 3 hr 6 hr
6 hour
Temperature (ºF) Pressure Precipitation (in)